This is the latest recevied weather packets stored in our database for station/object KB1YYC. If no packets are shown the sender has not sent any weather packets the latest 10 day(s).
| Time | Temp. | Humidity | Pressure | Rain* | Wind** | Luminosity | Snow |
|---|---|---|---|---|---|---|---|
| 1778111404 | 13.89° C | 99% | 1004.8 hPa | 0 mm | - | 0 W/m² | - |
| 1778111102 | 13.89° C | 99% | 1004.9 hPa | 0 mm | - | 1 W/m² | - |
| 1778110798 | 13.89° C | 99% | 1004.8 hPa | 0 mm | - | 1 W/m² | - |
| 1778110495 | 13.89° C | 99% | 1004.7 hPa | 0 mm | - | 2 W/m² | - |
| 1778110191 | 14.44° C | 99% | 1004.8 hPa | 0 mm | - | 2 W/m² | - |
| 1778109888 | 14.44° C | 99% | 1004.8 hPa | 0 mm | - | 2 W/m² | - |
| 1778109584 | 14.44° C | 99% | 1004.7 hPa | 0 mm | - | 4 W/m² | - |
| 1778109281 | 14.44° C | 99% | 1004.8 hPa | 0 mm | - | 3 W/m² | - |
| 1778108978 | 14.44° C | 99% | 1004.8 hPa | 0 mm | - | 3 W/m² | - |
| 1778108675 | 14.44° C | 99% | 1004.9 hPa | 0 mm | - | 5 W/m² | - |
| 1778108371 | 14.44° C | 99% | 1004.9 hPa | 0 mm | - | 5 W/m² | - |
| 1778108069 | 14.44° C | 99% | 1004.8 hPa | 0 mm | - | 6 W/m² | - |
| 1778107766 | 14.44° C | 99% | 1004.9 hPa | 0 mm | - | 12 W/m² | - |
| 1778107463 | 14.44° C | 99% | 1004.9 hPa | 0 mm | - | 12 W/m² | - |
| 1778107159 | 14.44° C | 99% | 1004.9 hPa | 0 mm | - | 11 W/m² | - |
| 1778106855 | 14.44° C | 99% | 1005.2 hPa | 0 mm | - | 12 W/m² | - |
| 1778106552 | 15° C | 99% | 1005 hPa | 0 mm | - | 12 W/m² | - |
| 1778106249 | 15° C | 99% | 1005.1 hPa | 0 mm | - | 11 W/m² | - |
| 1778105946 | 15° C | 99% | 1004.9 hPa | 0 mm | - | 12 W/m² | - |
| 1778105643 | 15° C | 99% | 1005 hPa | 1.78 mm | - | 12 W/m² | - |
| 1778105341 | 15° C | 99% | 1005.2 hPa | 1.78 mm | - | 14 W/m² | - |
| 1778105036 | 15° C | 99% | 1005.3 hPa | 0 mm | - | 25 W/m² | - |
| 1778104733 | 14.44° C | 99% | 1005.1 hPa | 1.27 mm | - | 61 W/m² | - |
| 1778104428 | 14.44° C | 99% | 1005.4 hPa | 1.27 mm | - | 19 W/m² | - |
| 1778104124 | 14.44° C | 99% | 1005.3 hPa | 0 mm | - | 18 W/m² | - |
* Rain latest hour (hover to see other rain measurements)
** Current wind speed in m/s (hover to see current wind gust speed)